SES-22

operational
NORAD ID: 52933 Int'l Des: 2022-071 Owner: SESSA Country: L
HEOCIRCULARGSOGEO

SES-22について

説明を読み込み中...

リアルタイム位置

3D地球を読み込み中...

次回通過

高度履歴

Altitude vs Time

uPlot chart will show altitude changes over time

軌道要素

1 52933U 22071A 26062.13108014 .00000089 00000-0 00000+0 0 9994
2 52933 0.0184 233.6766 0001043 100.3289 95.0807 1.00274571 6452
Epoch: Mar 3, 2026 • Age: 38 hours

現在のステータス

高度 35786.5 km
速度 3.07 km/s
衛星直下点 0.01°N, 138.98°W
打ち上げ日 Jun 29, 2022
運用期間 3.6 years
タイプ communications

技術仕様

分類 Payload
質量 3500.00 kg
乾燥質量 2000.00 kg
総質量 3500.00 kg
長さ 5.00 m
直径 3.50 m
スパン 30.00 m
形状 Box + 2 Pan
製造者 THALES
バスタイプ Spacebus 4000B2
フェーズステータス In Orbit
所有者/国 SESSA/L

大規模コンステレーション

Loading constellations...